Change the Weather History Date:

Tuesday, November 5, 2013

  Actual Average Record
Temperature  
Mean Temperature 78 °F 74 °F  
Max Temperature 86 °F 83 °F 89 °F (1959)
Min Temperature 69 °F 65 °F 37 °F (1955)
Degree Days  
Heating Degree Days 0 0  
Month to date heating degree days 0 0  
Since 1 July heating degree days 0 1  
Cooling Degree Days 13 9  
Month to date cooling degree days 54 49  
Year to date cooling degree days 3695 3644  
Growing Degree Days 26 (Base 50)    
Moisture  
Dew Point 67 °F    
Average Humidity 74    
Maximum Humidity 90    
Minimum Humidity 58    
Precipitation  
Precipitation T in 0.11 in 4.82 in (1998)
Month to date precipitation T 0.54  
Year to date precipitation 48.22 48.94  
Snow  
Snow 0.00 in - - ()
Month to date snowfall 0.0  
Since 1 July snowfall 0.0  
Since 1 September snowfall 0.0  
Snow Depth 0.00 in    
Sea Level Pressure  
Sea Level Pressure 30.03 in    
Wind  
Wind Speed 14 mph (ENE)    
Max Wind Speed 26 mph    
Max Gust Speed 35 mph    
Visibility 10 miles    
Events      
T = Trace of Precipitation, MM = Missing Value Source: NWS Daily Summary

Daily Weather History Graph

Daily Weather History Graph

Search for Another Location

Airport or City:

Trip Planner

Search our weather history database for the weather conditions in past years. The results will help you decide how hot, cold, wet, or windy it might be!

Date:

Astronomy

Nov. 05, 2013 Rise Set
Actual Time 6:38 AM EST 5:42 PM EST
Civil Twilight 6:14 AM EST 6:06 PM EST
Nautical Twilight 5:47 AM EST 6:33 PM EST
Astronomical Twilight 5:20 AM EST 7:00 PM EST
Moon 8:44 AM EST (11/5) 7:50 PM EST (11/5)
Length of Visible Light 11h 51m
Length of Day
11h 03m
Waxing Crescent, 6% of the Moon is Illuminated
Nov 5
Waxing Crescent
Nov 10
First Quarter
Nov 17
Full
Nov 25
Last Quarter
Dec 2
New

Hourly Weather History & Observations

Time (EST) Temp. Heat Index Dew Point Humidity Pressure Visibility Wind Dir Wind Speed Gust Speed Precip Events Conditions
12:53 AM 71.1 °F - 64.9 °F 81% 30.04 in 10.0 mi NNE 12.7 mph 20.7 mph N/A   Overcast
1:53 AM 70.0 °F - 64.0 °F 81% 30.04 in 10.0 mi NE 11.5 mph - N/A   Mostly Cloudy
2:53 AM 70.0 °F - 64.0 °F 81% 30.02 in 10.0 mi NE 10.4 mph - N/A   Overcast
3:53 AM 70.0 °F - 64.0 °F 81% 30.02 in 10.0 mi NE 11.5 mph - N/A   Partly Cloudy
4:53 AM 70.0 °F - 64.9 °F 84% 30.02 in 10.0 mi NE 9.2 mph - N/A   Partly Cloudy
5:53 AM 69.1 °F - 64.9 °F 87% 30.03 in 10.0 mi NE 9.2 mph - N/A   Mostly Cloudy
6:53 AM 70.0 °F - 66.0 °F 87% 30.04 in 9.0 mi NE 9.2 mph - N/A   Mostly Cloudy
7:53 AM 72.0 °F - 66.9 °F 84% 30.06 in 9.0 mi NE 11.5 mph - N/A   Mostly Cloudy
8:53 AM 78.1 °F - 68.0 °F 71% 30.07 in 9.0 mi ENE 12.7 mph 21.9 mph N/A   Scattered Clouds
9:53 AM 81.0 °F 84.1 °F 69.1 °F 67% 30.07 in 9.0 mi East 23.0 mph 31.1 mph N/A   Partly Cloudy
10:53 AM 84.0 °F 87.8 °F 69.1 °F 61% 30.05 in 9.0 mi ENE 25.3 mph 34.5 mph N/A   Scattered Clouds
11:53 AM 84.9 °F 88.8 °F 69.1 °F 59% 30.03 in 10.0 mi East 21.9 mph 28.8 mph N/A   Mostly Cloudy
12:53 PM 82.9 °F 85.4 °F 66.9 °F 58% 30.01 in 10.0 mi East 19.6 mph 25.3 mph N/A   Mostly Cloudy
1:53 PM 82.9 °F 85.0 °F 66.0 °F 56% 30.01 in 10.0 mi East 17.3 mph 23.0 mph N/A   Overcast
2:53 PM 82.0 °F 84.1 °F 66.0 °F 58% 30.00 in 10.0 mi East 20.7 mph 27.6 mph N/A   Overcast
3:53 PM 81.0 °F 83.0 °F 66.0 °F 60% 30.00 in 10.0 mi East 13.8 mph 24.2 mph 0.00 in   Overcast
4:53 PM 81.0 °F 83.0 °F 66.0 °F 60% 30.01 in 10.0 mi NE 15.0 mph - N/A   Overcast
5:53 PM 78.1 °F - 68.0 °F 71% 30.02 in 10.0 mi ENE 12.7 mph - N/A   Overcast
6:53 PM 77.0 °F - 68.0 °F 74% 30.03 in 10.0 mi ENE 11.5 mph - N/A   Overcast
7:53 PM 75.0 °F - 69.1 °F 82% 30.04 in 10.0 mi ENE 15.0 mph 23.0 mph N/A   Overcast
8:53 PM 75.0 °F - 70.0 °F 84% 30.05 in 10.0 mi NE 9.2 mph - N/A   Overcast
9:53 PM 75.0 °F - 70.0 °F 84% 30.06 in 10.0 mi ENE 10.4 mph - N/A   Overcast
10:53 PM 75.0 °F - 70.0 °F 84% 30.05 in 9.0 mi ENE 11.5 mph - N/A   Overcast
11:53 PM 75.0 °F - 70.0 °F 84% 30.04 in 9.0 mi NE 11.5 mph - N/A   Overcast